When you browse on this site, cookies collect data to enhance your experience and personalize the content and advertising you see.
Visit our Privacy Policy to learn more. By continuing to use the site, you agree to this use of cookies and data.
  • In Österreich
  • Länderverzeichnis
  • Für 7 Tage
  • Wassertemperatur
  • Wetterkarte
  • News
  • Widgets
  • user-avatar
    Anmelden

    Stündliche Wetter Tottori

    Heute, 15 September, Sonntag

    Zeit Temperatur Niederschläge Wind Luftdruck Luftfeuchtigkeit
    00:00 +20°C° 0 mm 0 m/S 727 mmHg 89%
    01:00 +20°C° 0 mm 0 m/S 727 mmHg 89%
    02:00 +20°C° 0 mm 0 m/S 727 mmHg 89%
    03:00 +20°C° 0 mm 0 m/S 726 mmHg 88%
    04:00 +20°C° 0 mm 0 m/S 726 mmHg 88%
    05:00 +20°C° 0 mm 0 m/S 726 mmHg 88%
    06:00 +20°C° 0 mm 0 m/S 726 mmHg 88%
    07:00 +22°C° 0 mm 0 m/S 726 mmHg 81%
    08:00 +24°C° 0 mm 0 m/S 727 mmHg 74%
    09:00 +27°C° 0 mm 0 m/S 727 mmHg 64%
    10:00 +30°C° 0 mm 1 m/S 727 mmHg 63%
    11:00 +30°C° 0 mm 1 m/S 726 mmHg 61%
    12:00 +31°C° 0 mm 2 m/S 726 mmHg 59%
    13:00 +30°C° 0 mm 2 m/S 726 mmHg 62%
    14:00 +30°C° 0 mm 2 m/S 725 mmHg 65%
    15:00 +29°C° 0 mm 2 m/S 725 mmHg 68%
    16:00 +27°C° 0 mm 2 m/S 725 mmHg 75%
    17:00 +26°C° 0 mm 2 m/S 725 mmHg 82%
    18:00 +24°C° 0 mm 2 m/S 725 mmHg 89%
    19:00 +23°C° 0 mm 1 m/S 725 mmHg 91%
    20:00 +22°C° 0 mm 1 m/S 725 mmHg 93%
    21:00 +22°C° 0 mm 1 m/S 725 mmHg 95%
    22:00 +22°C° 0 mm 1 m/S 725 mmHg 96%
    23:00 +22°C° 0 mm 1 m/S 724 mmHg 96%

    Morgen, 16 September, Montag

    Zeit Temperatur Niederschläge Wind Luftdruck Luftfeuchtigkeit
    00:00 +22°C° 0 mm 1 m/S 724 mmHg 97%
    01:00 +22°C° 0 mm 1 m/S 724 mmHg 97%
    02:00 +21°C° 0 mm 2 m/S 724 mmHg 97%
    03:00 +21°C° 0 mm 2 m/S 724 mmHg 98%
    04:00 +21°C° 0.1 mm 2 m/S 724 mmHg 98%
    05:00 +21°C° 0.1 mm 2 m/S 724 mmHg 98%
    06:00 +21°C° 0.1 mm 2 m/S 724 mmHg 98%
    07:00 +22°C° 0.1 mm 3 m/S 724 mmHg 93%
    08:00 +24°C° 0.1 mm 3 m/S 724 mmHg 88%
    09:00 +25°C° 0.1 mm 3 m/S 724 mmHg 83%
    10:00 +25°C° 0.1 mm 3 m/S 724 mmHg 80%
    11:00 +26°C° 0.1 mm 4 m/S 724 mmHg 78%
    12:00 +26°C° 0.1 mm 4 m/S 723 mmHg 76%
    13:00 +26°C° 0.2 mm 4 m/S 723 mmHg 77%
    14:00 +26°C° 0.2 mm 4 m/S 723 mmHg 78%
    15:00 +25°C° 0.2 mm 5 m/S 723 mmHg 80%
    16:00 +23°C° 0.3 mm 4 m/S 723 mmHg 84%
    17:00 +23°C° 0.3 mm 4 m/S 723 mmHg 88%
    18:00 +22°C° 0.3 mm 4 m/S 724 mmHg 93%
    19:00 +21°C° 0.3 mm 4 m/S 724 mmHg 94%
    20:00 +21°C° 0.3 mm 3 m/S 724 mmHg 95%
    21:00 +21°C° 0.3 mm 3 m/S 724 mmHg 96%
    22:00 +21°C° 0.3 mm 3 m/S 724 mmHg 97%
    23:00 +21°C° 0.3 mm 3 m/S 724 mmHg 97%

    übermorgen, 17 September, Dienstag

    Zeit Temperatur Niederschläge Wind Luftdruck Luftfeuchtigkeit
    00:00 +21°C° 0.3 mm 3 m/S 724 mmHg 97%
    01:00 +21°C° 0.3 mm 3 m/S 725 mmHg 97%
    02:00 +21°C° 0.3 mm 3 m/S 725 mmHg 97%
    03:00 +21°C° 0.3 mm 3 m/S 725 mmHg 97%
    04:00 +21°C° 0.2 mm 3 m/S 725 mmHg 96%
    05:00 +21°C° 0.2 mm 3 m/S 726 mmHg 96%
    06:00 +21°C° 0.2 mm 3 m/S 726 mmHg 96%
    07:00 +21°C° 0.1 mm 3 m/S 726 mmHg 91%
    08:00 +22°C° 0.1 mm 4 m/S 727 mmHg 87%
    09:00 +23°C° 0.1 mm 4 m/S 727 mmHg 83%
    10:00 +23°C° 0 mm 4 m/S 727 mmHg 76%
    11:00 +25°C° 0 mm 4 m/S 727 mmHg 70%
    12:00 +26°C° 0 mm 4 m/S 727 mmHg 63%
    13:00 +26°C° 0 mm 4 m/S 727 mmHg 62%
    14:00 +26°C° 0 mm 4 m/S 727 mmHg 62%
    15:00 +26°C° 0 mm 4 m/S 727 mmHg 61%
    16:00 +24°C° 0 mm 3 m/S 727 mmHg 69%
    17:00 +21°C° 0 mm 3 m/S 727 mmHg 76%
    18:00 +20°C° 0 mm 3 m/S 727 mmHg 83%
    19:00 +19°C° 0 mm 2 m/S 727 mmHg 86%
    20:00 +18°C° 0 mm 2 m/S 728 mmHg 89%
    21:00 +17°C° 0 mm 2 m/S 728 mmHg 91%
    22:00 +17°C° 0 mm 2 m/S 728 mmHg 92%
    23:00 +18°C° 0 mm 1 m/S 728 mmHg 93%

    18 September, Mittwoch

    Zeit Temperatur Niederschläge Wind Luftdruck Luftfeuchtigkeit
    00:00 +18°C° 0 mm 1 m/S 727 mmHg 94%
    01:00 +18°C° 0 mm 1 m/S 727 mmHg 94%
    02:00 +19°C° 0 mm 1 m/S 727 mmHg 95%
    03:00 +19°C° 0 mm 1 m/S 727 mmHg 95%
    04:00 +19°C° 0 mm 1 m/S 727 mmHg 96%
    05:00 +19°C° 0 mm 1 m/S 727 mmHg 96%
    06:00 +19°C° 0 mm 1 m/S 728 mmHg 97%
    07:00 +20°C° 0 mm 2 m/S 728 mmHg 91%
    08:00 +21°C° 0 mm 2 m/S 728 mmHg 84%
    09:00 +24°C° 0 mm 2 m/S 729 mmHg 78%
    10:00 +25°C° 0 mm 2 m/S 729 mmHg 71%
    11:00 +26°C° 0 mm 2 m/S 729 mmHg 64%
    12:00 +27°C° 0 mm 3 m/S 728 mmHg 57%
    13:00 +26°C° 0 mm 3 m/S 728 mmHg 58%
    14:00 +26°C° 0 mm 3 m/S 728 mmHg 58%
    15:00 +25°C° 0 mm 3 m/S 728 mmHg 58%
    16:00 +22°C° 0 mm 3 m/S 728 mmHg 64%
    17:00 +21°C° 0 mm 3 m/S 728 mmHg 70%
    18:00 +19°C° 0 mm 2 m/S 728 mmHg 76%
    19:00 +19°C° 0 mm 2 m/S 728 mmHg 77%
    20:00 +18°C° 0 mm 2 m/S 728 mmHg 78%
    21:00 +18°C° 0 mm 2 m/S 728 mmHg 80%
    22:00 +17°C° 0 mm 2 m/S 728 mmHg 83%
    23:00 +16°C° 0 mm 2 m/S 728 mmHg 86%

    19 September, Donnerstag

    Zeit Temperatur Niederschläge Wind Luftdruck Luftfeuchtigkeit
    00:00 +16°C° 0 mm 1 m/S 728 mmHg 89%
    01:00 +16°C° 0 mm 1 m/S 728 mmHg 90%
    02:00 +15°C° 0 mm 1 m/S 728 mmHg 91%
    03:00 +15°C° 0 mm 1 m/S 728 mmHg 92%
    04:00 +16°C° 0.1 mm 2 m/S 728 mmHg 93%
    05:00 +16°C° 0.1 mm 2 m/S 728 mmHg 95%
    06:00 +16°C° 0.1 mm 3 m/S 729 mmHg 96%
    07:00 +17°C° 0.2 mm 3 m/S 729 mmHg 92%
    08:00 +18°C° 0.2 mm 4 m/S 729 mmHg 87%
    09:00 +20°C° 0.2 mm 4 m/S 729 mmHg 83%
    10:00 +20°C° 0.1 mm 4 m/S 730 mmHg 78%
    11:00 +21°C° 0.1 mm 4 m/S 730 mmHg 73%
    12:00 +22°C° 0.1 mm 5 m/S 730 mmHg 68%
    13:00 +21°C° 0 mm 5 m/S 729 mmHg 66%
    14:00 +21°C° 0 mm 5 m/S 729 mmHg 65%
    15:00 +21°C° 0 mm 5 m/S 729 mmHg 63%
    16:00 +19°C° 0 mm 4 m/S 729 mmHg 69%
    17:00 +18°C° 0 mm 4 m/S 729 mmHg 75%
    18:00 +16°C° 0 mm 3 m/S 729 mmHg 81%
    19:00 +16°C° 0 mm 3 m/S 729 mmHg 85%
    20:00 +14°C° 0 mm 3 m/S 730 mmHg 88%
    21:00 +13°C° 0 mm 3 m/S 730 mmHg 92%
    22:00 +14°C° 0 mm 2 m/S 730 mmHg 92%
    23:00 +14°C° 0 mm 2 m/S 730 mmHg 92%

    20 September, Freitag

    Zeit Temperatur Niederschläge Wind Luftdruck Luftfeuchtigkeit
    00:00 +13°C° 0 mm 2 m/S 730 mmHg 92%
    01:00 +13°C° 0 mm 2 m/S 730 mmHg 91%
    02:00 +13°C° 0 mm 2 m/S 730 mmHg 90%
    03:00 +13°C° 0 mm 2 m/S 729 mmHg 89%
    04:00 +13°C° 0 mm 2 m/S 729 mmHg 89%
    05:00 +13°C° 0 mm 2 m/S 729 mmHg 89%
    06:00 +12°C° 0 mm 3 m/S 729 mmHg 89%
    07:00 +14°C° 0 mm 3 m/S 730 mmHg 82%
    08:00 +17°C° 0 mm 3 m/S 730 mmHg 75%
    09:00 +19°C° 0 mm 3 m/S 730 mmHg 68%
    10:00 +20°C° 0 mm 3 m/S 730 mmHg 62%
    11:00 +22°C° 0 mm 3 m/S 730 mmHg 57%
    12:00 +24°C° 0 mm 3 m/S 730 mmHg 52%
    13:00 +24°C° 0 mm 3 m/S 729 mmHg 52%
    14:00 +24°C° 0 mm 3 m/S 729 mmHg 53%
    15:00 +24°C° 0 mm 3 m/S 729 mmHg 53%
    16:00 +21°C° 0 mm 3 m/S 729 mmHg 63%
    17:00 +19°C° 0 mm 3 m/S 729 mmHg 73%
    18:00 +17°C° 0 mm 3 m/S 729 mmHg 82%
    19:00 +16°C° 0 mm 2 m/S 729 mmHg 85%
    20:00 +15°C° 0 mm 2 m/S 729 mmHg 88%
    21:00 +15°C° 0 mm 2 m/S 729 mmHg 90%
    22:00 +15°C° 0 mm 2 m/S 729 mmHg 90%
    23:00 +15°C° 0 mm 1 m/S 729 mmHg 90%
    Mehr zeigen